FGYBKLPWX Weather Reports


time (UTC)temp
C
wind
direction
speed
KPH
gust
KPH
rain 1hr
cm
rain 24hr
cm
rain mn
cm
humidity
%
barometer
mb
20260504130554 21 81 3.2 12.9 0.00 0.00 0.00 74 1017.6
20260504120103 18 75 0.0 4.8 0.00 0.00 0.00 89 1017.4
20260504110555 15 0 0.0 0.0 0.00 0.00 0.00 93 1017.0
20260504100557 16 0 0.0 3.2 0.00 0.00 0.00 92 1016.7
20260504100104 16 334 0.0 3.2 0.00 0.00 0.00 92 1016.7
20260504090117 16 0 0.0 3.2 0.00 0.00 0.00 89 1016.6
20260504081559 16 0 0.0 4.8 0.00 0.00 0.00 87 1016.6
20260504081053 17 0 1.6 4.8 0.00 0.00 0.00 88 1016.7
20260504080553 17 329 3.2 4.8 0.00 0.00 0.00 87 1016.9
20260504080112 17 321 0.0 4.8 0.00 0.00 0.00 88 1016.9
20260504050557 18 0 0.0 4.8 0.00 0.00 0.00 79 1017.7
20260504045600 18 36 0.0 4.8 0.00 0.00 0.00 78 1017.9
20260504045056 18 0 0.0 1.6 0.00 0.00 0.00 79 1017.8
20260504044619 18 0 0.0 0.0 0.00 0.00 0.00 79 1017.9
20260504044056 18 0 0.0 1.6 0.00 0.00 0.00 78 1018.1
20260504043556 18 0 0.0 1.6 0.00 0.00 0.00 77 1018.1
20260504043057 18 0 0.0 3.2 0.00 0.00 0.00 76 1018.2
20260504042556 18 0 0.0 3.2 0.00 0.00 0.00 75 1018.1
20260504042057 18 0 0.0 4.8 0.00 0.00 0.00 75 1018.1
20260504041556 18 0 0.0 4.8 0.00 0.00 0.00 74 1018.0
20260504041056 19 0 0.0 3.2 0.00 0.00 0.00 74 1018.0
20260504040556 19 315 0.0 4.8 0.00 0.00 0.00 74 1018.0
20260504040117 19 0 0.0 4.8 0.00 0.00 0.00 74 1018.0
20260504035559 19 0 0.0 6.4 0.00 0.00 0.00 73 1018.1
20260504035056 19 69 0.0 6.4 0.00 0.00 0.00 73 1018.1
20260504034607 19 360 0.0 9.7 0.00 0.00 0.00 73 1018.0
20260504034056 19 0 0.0 9.7 0.00 0.00 0.00 73 1018.0
20260504033558 19 84 1.6 9.7 0.00 0.00 0.00 72 1018.0
20260504033058 19 40 1.6 6.4 0.00 0.00 0.00 72 1017.9
20260504032559 19 56 1.6 6.4 0.00 0.00 0.00 72 1017.9
20260504032058 19 86 1.6 8.0 0.00 0.00 0.00 72 1018.0
20260504031556 19 0 1.6 8.0 0.00 0.00 0.00 72 1017.9
20260504031057 19 87 1.6 8.0 0.00 0.00 0.00 72 1017.9
20260504030553 19 104 1.6 12.9 0.00 0.00 0.00 72 1017.9
20260504030057 20 0 1.6 12.9 0.00 0.00 0.00 71 1017.9
20260504025559 20 93 4.8 12.9 0.00 0.00 0.00 71 1017.9
20260504025056 20 80 1.6 9.7 0.00 0.00 0.00 71 1017.8
20260504024555 20 26 3.2 9.7 0.00 0.00 0.00 71 1017.8
20260504024056 20 52 1.6 6.4 0.00 0.00 0.00 71 1017.8
20260504023555 20 0 3.2 9.7 0.00 0.00 0.00 71 1017.8
20260504023057 20 73 3.2 9.7 0.00 0.00 0.00 71 1017.9
20260504022554 20 57 1.6 6.4 0.00 0.00 0.00 71 1017.9
20260504022058 20 68 1.6 11.3 0.00 0.00 0.00 71 1017.8
20260504021557 20 78 1.6 11.3 0.00 0.00 0.00 70 1017.8
20260504021055 20 119 3.2 9.7 0.00 0.00 0.00 70 1017.7
20260504020555 20 63 1.6 9.7 0.00 0.00 0.00 70 1017.7
20260504020054 20 93 3.2 11.3 0.00 0.00 0.00 70 1017.7
20260504015555 20 55 1.6 12.9 0.00 0.00 0.00 69 1017.6
20260504015055 20 98 4.8 12.9 0.00 0.00 0.00 69 1017.3
20260504014557 20 29 1.6 12.9 0.00 0.00 0.00 69 1017.2
20260504014055 20 51 3.2 11.3 0.00 0.00 0.00 68 1017.3
20260504013553 20 103 4.8 11.3 0.00 0.00 0.00 68 1017.2
20260504013111 20 123 4.8 12.9 0.00 0.00 0.00 67 1017.2
20260504012555 21 109 3.2 12.9 0.00 0.00 0.00 67 1017.2
20260504012055 21 107 4.8 14.5 0.00 0.00 0.00 67 1017.1
20260504011556 21 142 3.2 14.5 0.00 0.00 0.00 66 1017.0
20260504011054 21 29 6.4 14.5 0.00 0.00 0.00 66 1016.9
20260504010555 21 46 4.8 14.5 0.00 0.00 0.00 65 1017.0
20260504010105 21 117 3.2 11.3 0.00 0.00 0.00 64 1016.8
20260504005556 21 45 6.4 12.9 0.00 0.00 0.00 63 1017.0
20260504005057 21 69 4.8 12.9 0.00 0.00 0.00 63 1016.9
20260504004606 21 0 4.8 12.9 0.00 0.00 0.00 62 1016.8
20260504004056 22 98 4.8 12.9 0.00 0.00 0.00 61 1016.7
20260504003555 22 139 3.2 12.9 0.00 0.00 0.00 60 1016.6
20260504003053 22 76 4.8 12.9 0.00 0.00 0.00 60 1016.6
20260504002555 22 64 3.2 11.3 0.00 0.00 0.00 59 1016.6
20260504002053 22 69 4.8 11.3 0.00 0.00 0.00 58 1016.6
20260504001554 22 113 3.2 11.3 0.00 0.00 0.00 58 1016.7
20260504001055 22 125 3.2 11.3 0.00 0.00 0.00 58 1016.7
20260504000555 22 114 3.2 11.3 0.00 0.00 0.00 57 1016.7
20260504000113 22 32 1.6 11.3 0.00 0.00 0.00 57 1016.7
20260503235557 22 119 1.6 8.0 0.00 0.00 0.00 57 1016.6
20260503235101 23 0 3.2 11.3 0.00 0.00 0.00 56 1016.6
20260503234557 23 135 3.2 11.3 0.00 0.00 0.00 56 1016.4
20260503234057 23 100 3.2 11.3 0.00 0.00 0.00 56 1016.4
20260503233557 23 92 1.6 14.5 0.00 0.00 0.00 56 1016.3
20260503233058 23 154 3.2 14.5 0.00 0.00 0.00 56 1016.2
20260503232556 23 77 4.8 14.5 0.00 0.00 0.00 56 1016.3
20260503232057 23 65 1.6 12.9 0.00 0.00 0.00 55 1016.4
20260503231555 23 71 4.8 12.9 0.00 0.00 0.00 55 1016.2
20260503231058 23 51 3.2 12.9 0.00 0.00 0.00 56 1016.2
20260503230557 23 161 4.8 14.5 0.00 0.00 0.00 55 1016.2
20260503230058 24 42 4.8 14.5 0.00 0.00 0.00 54 1016.1
20260503225557 24 90 4.8 19.3 0.00 0.00 0.00 55 1016.2
20260503225056 24 105 8.0 19.3 0.00 0.00 0.00 55 1016.2
20260503224556 24 115 4.8 17.7 0.00 0.00 0.00 54 1016.1
20260503224056 24 113 8.0 17.7 0.00 0.00 0.00 54 1016.2
20260503223557 24 143 6.4 17.7 0.00 0.00 0.00 55 1016.1
20260503223057 24 95 6.4 16.1 0.00 0.00 0.00 55 1016.2
20260503222557 24 124 4.8 12.9 0.00 0.00 0.00 55 1016.2
20260503222057 24 107 3.2 12.9 0.00 0.00 0.00 54 1016.2
20260503221558 25 83 4.8 12.9 0.00 0.00 0.00 54 1016.3
20260503221057 25 130 4.8 12.9 0.00 0.00 0.00 53 1016.2
20260503220558 25 78 3.2 14.5 0.00 0.00 0.00 52 1016.3
20260503220114 25 84 4.8 14.5 0.00 0.00 0.00 53 1016.2
20260503215557 25 111 6.4 14.5 0.00 0.00 0.00 53 1016.3
20260503215057 25 111 6.4 14.5 0.00 0.00 0.00 53 1016.1
20260503214558 25 134 3.2 19.3 0.00 0.00 0.00 53 1016.2
20260503214057 25 106 4.8 20.9 0.00 0.00 0.00 52 1016.1
20260503213555 25 114 11.3 20.9 0.00 0.00 0.00 52 1016.0
20260503213058 25 59 9.7 20.9 0.00 0.00 0.00 52 1016.0
20260503212556 25 104 6.4 17.7 0.00 0.00 0.00 53 1016.0
20260503212055 25 119 6.4 17.7 0.00 0.00 0.00 53 1016.0
20260503211555 25 49 8.0 16.1 0.00 0.00 0.00 52 1016.0
20260503211058 26 89 6.4 14.5 0.00 0.00 0.00 52 1015.9
20260503210557 25 147 4.8 14.5 0.00 0.00 0.00 53 1016.0
20260503210058 25 97 3.2 16.1 0.00 0.00 0.00 55 1016.1
20260503205558 25 99 4.8 16.1 0.00 0.00 0.00 55 1016.1
20260503205056 25 129 8.0 19.3 0.00 0.00 0.00 54 1016.1
20260503204605 26 167 4.8 19.3 0.00 0.00 0.00 51 1016.2
20260503204055 25 92 8.0 17.7 0.00 0.00 0.00 55 1016.3
20260503203553 25 122 8.0 17.7 0.00 0.00 0.00 54 1016.3
20260503203059 25 69 1.6 12.9 0.00 0.00 0.00 53 1016.3
20260503202555 25 44 3.2 16.1 0.00 0.00 0.00 53 1016.4
20260503202055 25 60 6.4 16.1 0.00 0.00 0.00 52 1016.5
20260503201559 26 84 4.8 12.9 0.00 0.00 0.00 52 1016.6
20260503201059 26 104 3.2 12.9 0.00 0.00 0.00 53 1016.5
20260503200556 25 65 4.8 19.3 0.00 0.00 0.00 53 1016.5
20260503195554 26 130 6.4 16.1 0.00 0.36 0.00 53 1016.7
20260503195055 25 134 1.6 11.3 0.00 0.36 0.00 56 1016.6
20260503194603 25 0 3.2 14.5 0.00 0.36 0.00 55 1016.8
20260503194056 25 75 3.2 17.7 0.00 0.36 0.00 55 1016.9
20260503193555 25 111 8.0 17.7 0.00 0.36 0.00 55 1016.8
20260503193058 25 113 9.7 16.1 0.00 0.36 0.00 55 1016.9
20260503192555 25 103 8.0 16.1 0.00 0.36 0.00 57 1017.0
20260503192055 26 103 4.8 16.1 0.00 0.36 0.00 53 1017.2
20260503191554 26 328 3.2 16.1 0.00 0.36 0.00 54 1017.2
20260503191055 26 336 4.8 12.9 0.00 0.36 0.00 54 1017.3
20260503190556 26 34 3.2 14.5 0.00 0.36 0.00 54 1017.4
20260503190054 25 0 3.2 14.5 0.00 0.36 0.00 51 1017.4
20260503185555 26 342 3.2 14.5 0.00 1.07 0.00 54 1017.6
20260503185059 25 306 1.6 12.9 0.00 1.07 0.00 56 1017.6
20260503184605 25 344 3.2 11.3 0.00 1.07 0.00 56 1017.7
20260503184056 25 333 3.2 11.3 0.00 1.07 0.00 55 1017.8
20260503183554 25 171 1.6 9.7 0.00 1.07 0.00 55 1017.7
20260503183057 25 322 3.2 9.7 0.00 1.07 0.00 54 1017.8
20260503182557 26 24 1.6 12.9 0.00 1.07 0.00 55 1017.8
20260503182056 25 167 1.6 12.9 0.00 1.07 0.00 57 1017.8
20260503181602 25 55 3.2 11.3 0.00 1.07 0.00 54 1017.9
20260503181056 25 90 4.8 12.9 0.00 1.07 0.00 56 1017.9
20260503180555 25 360 4.8 14.5 0.00 1.07 0.00 57 1017.9
20260503180116 25 89 3.2 14.5 0.00 1.07 0.00 58 1018.0
20260503175555 24 31 1.6 12.9 0.00 1.07 0.00 59 1018.0
20260503175056 24 76 3.2 12.9 0.00 1.07 0.00 58 1018.1
20260503174555 25 26 3.2 12.9 0.00 1.07 0.00 59 1018.2
20260503174059 25 301 3.2 16.1 0.00 1.07 0.00 60 1018.2
20260503173555 24 12 3.2 16.1 0.00 1.07 0.00 61 1018.3
20260503173108 24 352 8.0 16.1 0.00 1.07 0.00 62 1018.3
20260503172556 24 360 4.8 14.5 0.00 1.07 0.00 64 1018.3
20260503172055 23 346 3.2 11.3 0.00 1.07 0.00 63 1018.5
20260503171555 23 5 3.2 14.5 0.00 1.07 0.00 63 1018.5
20260503171056 23 154 3.2 17.7 0.00 1.07 0.00 61 1018.5
20260503170556 23 71 8.0 17.7 0.00 1.07 0.00 63 1018.7
20260503170106 23 325 3.2 14.5 0.00 1.07 0.00 64 1018.8
20260503160114 22 329 4.8 16.1 0.00 1.07 0.00 68 1019.2
20260503150555 21 333 1.6 17.7 0.00 1.07 0.00 73 1018.9
20260503150103 21 347 9.7 19.3 0.00 1.07 0.00 72 1018.9
20260503140108 18 184 6.4 17.7 0.00 1.07 0.00 79 1018.7